Regional Weather Roundup
Issued by NWS

Home | Current Version | Previous Version | Graphics & Text | Print | Product List | Glossary On
Versions: 1 2 3 4 5 6 7 8 9 10 11 12 13 14 15 16 17 18 19 20 21 22 23 24 25 26 27 28 29 30 31 32 33 34 35 36 37 38 39 40 41 42 43 44 45 46 47 48 49 50
000
ASUS43 KFSD 230510
RWRSD

WEATHER ROUNDUP FOR SOUTH DAKOTA
NATIONAL WEATHER SERVICE SIOUX FALLS SD
1200 AM CDT SAT MAY 23 2015

NOTE: "FAIR" INDICATES FEW OR NO CLOUDS BELOW 12,000 FEET WITH NO
SIGNIFICANT WEATHER AND/OR OBSTRUCTIONS TO VISIBILITY.


SDZ001>005-009-010-012>017-230600-
NORTHWEST AND NORTH CENTRAL SOUTH DAKOTA

CITY           SKY/WX    TMP DP  RH WIND       PRES   REMARKS
BUFFALO          N/A     48  40  73 SE10      30.01F
FAITH            N/A     48  40  73 SE12      30.10F
MOBRIDGE       CLEAR     54  45  71 S8        30.12R
$$

SDZ012>016-024>037-041>051-057-063-072>074-230600-
SOUTHWEST AND SOUTH CENTRAL SOUTH DAKOTA

CITY           SKY/WX    TMP DP  RH WIND       PRES   REMARKS
RAPID CTY ARPT CLOUDY    49  43  80 S10       30.08F
PIERRE         CLEAR     47  41  80 SE12      30.15S
CUSTER         FOG       40  39  97 VRB3      30.08F VSB 3/4
ELLSWORTH AFB  MOCLDY    49  44  83 S14       30.07
PHILIP         CLOUDY    52  43  71 SE9       30.11F
PINE RIDGE     CLOUDY    48  42  80 S7        30.10S
SPEARFISH      FAIR      45  37  76 SE5       30.05F
WINNER         CLOUDY    51  43  74 SE7       30.16F
$$

SDZ004>011-016>023-039-040-230600-
NORTHEAST SOUTH DAKOTA

CITY           SKY/WX    TMP DP  RH WIND       PRES   REMARKS
ABERDEEN       PTCLDY    54  44  69 S9        30.18R
WATERTOWN      MOCLDY    52  43  71 CALM      30.20S
BROOKINGS      PTCLDY    54  43  66 CALM      30.22S
SISSETON         N/A     60  46  59 W13       30.15R
$$

SDZ017-020-022-023-036>040-048>070-230600-
SOUTHEAST SOUTH DAKOTA

CITY           SKY/WX    TMP DP  RH WIND       PRES   REMARKS
SIOUX FALLS    CLOUDY    56  46  69 E5        30.19S
HURON          PTCLDY    53  42  66 CALM      30.18F
CHAMBERLAIN    CLOUDY    50  42  73 S5        30.17F
MITCHELL       CLOUDY    55  45  68 SW3       30.20R
YANKTON        CLOUDY    55  45  67 E6        30.19F
$$

ABBREVIATIONS USED IN REMARKS
   TC - TEMPERATURE IN CELSIUS
  WCI - WIND CHILL INDEX
   HX - HEAT INDEX
  VSB - VISIBILITY




USA.gov is the U.S. government's official web portal to all federal, state and local government web resources and services.